Location: Grandview
(34.8900°N, 117.1058°W)
Time: 20:02:35
(UTC-07:00)

STRAND 1 - Visible Passes

Search period start: 20 June 2018 00:00
Search period end: 30 June 2018 00:00
Orbit: 769 x 781 km, 98.5° (Epoch: 20 June)

Date Brightness Start Highest point End Pass type
(mag) Time Alt. Az. Time Alt. Az. Time Alt. Az.
20 Jun ? 21:16:49 10° NNW 21:21:06 27° WNW 21:25:24 10° SW visible
21 Jun ? 20:42:20 10° N 20:47:24 59° WNW 20:52:26 10° SSW visible
22 Jun ? 21:49:34 10° NW 21:52:06 14° WNW 21:54:38 10° W visible
23 Jun ? 21:14:09 10° N 21:18:32 29° WNW 21:22:55 10° SW visible
24 Jun ? 20:39:43 10° N 20:44:49 63° WNW 20:49:52 10° SSW visible
25 Jun ? 21:46:47 10° NNW 21:49:32 15° WNW 21:52:17 10° W visible
26 Jun ? 21:11:30 10° N 21:15:58 31° WNW 21:20:25 10° SW visible
27 Jun ? 20:37:07 10° N 20:42:14 67° WNW 20:47:18 10° SSW visible
28 Jun ? 21:44:01 10° NNW 21:46:59 16° WNW 21:49:56 10° W visible
29 Jun ? 21:08:51 10° N 21:13:23 32° WNW 21:17:55 10° SW visible
